Location: Home
(42.5358°N, 72.7383°W)
Time: 06:07:06
(UTC-05:00)

Transit 4A - Pass Details

Date: 04 December 2021
Orbit: 863 x 981 km, 66.8° (Epoch: 26 January)

Event Time Altitude Azimuth Distance (km) Brightness Sun altitude
Exits shadow 03:32:06 37° 106° (ESE) 1,461 9.2 -38.3°
Drops below altitude 10° 03:36:09 10° 130° (SE) 2,720 10.8 -37.6°
Sets 03:38:48 0° 135° (SE) 3,669 11.5 -37.1°
